This demonstration page uses our WeatherBlox Daily Observations layout. Learn more.

Hourly Observations for April 2, 2020

Temp ( °F °C ) Dew Point ( °F °C ) Humidity (%) Winds ( mph kmh ) Pressure ( in mb ) Visibility ( mi km ) Precip ( " mm )
12:54 am 00:54 Clear 59 15 41 5 51 51 SSE 18 30 29.76 1008 10 16.0934 0 0
1:54 am 01:54 Cloudy 59 15 42 5.6 54 54 SSE 15 24 29.76 1008 10 16.0934 0 0
2:54 am 02:54 Mostly Clear 58 14.4 42 5.6 56 56 SE 15 24 29.75 1008 10 16.0934 0 0
3:54 am 03:54 Mostly Clear 57 13.9 43 6.1 60 60 SSE 10 17 29.75 1008 10 16.0934 0 0
4:54 am 04:54 Clear 56 13.3 43 6.1 62 62 SE 10 17 29.75 1008 10 16.0934 0 0
5:54 am 05:54 Clear 55 12.8 43 6.1 64 64 SE 12 19 29.76 1008 10 16.0934 0 0
6:54 am 06:54 Mostly Cloudy 56 13.3 44 6.7 65 65 SE 8 13 29.79 1009 10 16.0934 0 0
7:54 am 07:54 Mostly Cloudy 55 12.8 47 8.3 74 74 SSE 18 30 29.78 1009 10 16.0934 0.01 0.254
8:54 am 08:54 Sunny 57 13.9 48 8.9 72 72 S 12 19 29.8 1009 10 16.0934 0 0
9:54 am 09:54 Mostly Cloudy 61 16.1 48 8.9 63 63 SSE 14 22 29.79 1009 10 16.0934 0 0
10:54 am 10:54 Cloudy 63 17.2 48 8.9 58 58 S 15 24 29.8 1009 10 16.0934 0 0
11:26 am 11:26 Cloudy 49 9.4 39 3.9 69 69 NNW 21 33 29.84 1011 10 16.0934 0 0
11:54 am 11:54 Cloudy 47 8.3 37 2.8 69 69 NNW 23 37 29.84 1010 10 16.0934 0 0
12:54 pm 12:54 Cloudy 44 6.7 34 1.1 68 68 N 20 31 29.88 1012 9 14.48406 0 0
1:54 pm 13:54 Cloudy 41 5 32 0 70 70 N 18 30 29.9 1013 10 16.0934 0 0
2:54 pm 14:54 Cloudy with Haze 38 3.3 32 0 79 79 NNW 21 33 29.92 1013 5 8.0467 0 0
3:04 pm 15:04 Cloudy with Light Rain 37 2.8 33 0.6 86 86 N 22 35 29.97 1015 3 4.82802 0.001 0.001
3:20 pm 15:20 Cloudy with Light Rain 36 2.2 33 0.6 89 89 NNW 17 28 29.98 1015 2 3.21868 0.001 0.001
3:26 pm 15:26 Windy with Snow Likely 36 2.2 32 0 86 86 NNW 22 35 29.98 1015 1.75 2.816345 0.001 0.001
3:42 pm 15:42 Windy with Snow Likely 34 1.1 31 -0.6 89 89 NNW 20 31 29.98 1015 1.75 2.816345 0.001 0.001
3:54 pm 15:54 Cloudy with Mist and Fog 34 1.1 31 -0.6 89 89 NNW 21 33 29.95 1014 2.5 4.02335 0.001 0.001
4:03 pm 16:03 Cloudy with Mist and Fog 33 0.6 30 -1.1 89 89 N 24 39 30 1016 4 6.43736 0 0
4:47 pm 16:47 Cloudy with Mist and Fog 32 0 28 -2.2 85 85 NNW 23 37 30.02 1017 4 6.43736 0 0
5:54 pm 17:54 Cloudy with Mist and Fog 30 -1.1 27 -2.8 88 88 N 22 35 30 1016 5 8.0467 0 0
6:13 pm 18:13 Cloudy with Mist and Fog 30 -1.1 27 -2.8 88 88 NNW 21 33 30.05 1018 2 3.21868 0 0
8:54 pm 20:54 Cloudy 28 -2.2 24 -4.4 85 85 N 23 37 30.07 1018 10 16.0934 0 0
9:38 pm 21:38 Cloudy 28 -2.2 24 -4.4 85 85 NNW 24 39 30.15 1021 9 14.48406 0 0
9:50 pm 21:50 Cloudy 28 -2 25 -4 86 86 NNW 20 31 30.16 1021 10 16.0934 0 0
9:54 pm 21:54 Cloudy 27 -2.8 23 -5 85 85 NNW 22 35 30.11 1020 10 16.0934 0 0
10:54 pm 22:54 Cloudy 26 -3.3 22 -5.6 84 84 NNW 23 37 30.13 1020 10 16.0934 0 0
11:54 pm 23:54 Cloudy 25 -3.9 21 -6.1 85 85 NNW 20 31 30.16 1021 8 12.87472 0 0

Powered by AerisWeather